CZ-3C DEB, 40818

Orbit data source: Space-Track

CZ-3C DEB, 40818 is space debris in HEO originally from a launch on Sun, 31 Oct 2010 UTC launched from the Xichang Space Center, China (XSC). Debris objects in space refer to the collection of defunct objects orbiting the Earth. Examples of debris include non-operational satellites, rocket bodies, and fragments generated from explosions, collisions, or faulty payload assembly.

Loading next visibility...
Identifier
40818, 2010-057AK
Orbit
HEO
Country
Flag of CNCN / PRC
Related business
Manufacturer
CALT
Mission
Spacecraft
Bus & Motor
Unknown
Mass
Unknown
Launch date (UTC)
2010-10-31 (16 years ago)
Launch vehicle
Unknown
Launch site
Xichang Space Center, China (XSC)
Object type
Payload
Rocket body
Debris
Shape & HBR
Unknown shape, 0.3 m
Radar Cross Section
Medium (>0.1 m² and <1 m²)

Expand to show TLE details & history
Last TLE update: 1 day ago

TLE from 1 day ago
0 CZ-3C DEB
1 40818U 10057AK  26263.36557663 -.00000018  00000-0  34685-4 0  9994
2 40818  20.6637  61.4534 7111162 223.5403  51.0959  2.25735518 95133
Epoch: 2026-09-20T08:46Z
TLE epoch observation values (Epoch: 2026-09-20T08:46:25.820Z)
Latitude
-0.00001°
Longitude
-69.43508°
Altitude
18,667.438 km
Speed
3.949 km/s
True Right ascension
04h 05m 43s
True Declination
0° 00' 00"
Sunlit
Object was in daylight at epoch
Visualization orbit readout
Latitude
Unknown
Longitude
Unknown
Altitude
Unknown
Speed
Unknown
Apparent Right ascension
Unknown
Apparent Declination
Unknown
Sunlit
N/A
Visualization observer readout
Local Sidereal Time
08:08:02
Azimuth
Unknown
Elevation
Unknown
Doppler factor
Unknown
Orbital elements
Apogee altitude
35,632.18 km
Perigee altitude
714.368 km
Semi-major axis
24,551.411 km
Eccentricity
0.71112
Inclination
20.6637°
RAAN
61.4534°
Arg. of periapsis
223.5403°
True anomaly
136.5907°
Mean anomaly
51.0959°
Eccentric anomaly
91.81932°
Mean motion
0.56419 °/min
Orbital period
638.08 mins
BSTAR
0.000034685
Loading maneuver chart data...
Computing Atmospheric mass density...
Loading historical data...
Loading historical data...
Loading historical data...
Loading historical data...
Loading historical data...
Loading historical data...
Loading historical data...

Documentation

Showing up to 5 results
|